Woodward, OK

1:11 AM CST on November 19, 2017 (GMT -0600)
West Woodward

Weather History for KWWR - April, 2014

Change the Weather History Date:

Tuesday, April 1, 2014

  Actual Average (KGAG) Record (KGAG)
Temperature  
Mean Temperature 48 °F -  
Max Temperature 62 °F 65 °F 91 °F (1956)
Min Temperature 33 °F 36 °F 20 °F (1972)
Degree Days  
Heating Degree Days 18    
Moisture  
Dew Point 29 °F    
Average Humidity 49    
Maximum Humidity 75    
Minimum Humidity 34    
Precipitation  
Precipitation 0.00 in - - ()
Sea Level Pressure  
Sea Level Pressure 29.98 in    
Wind  
Wind Speed 11 mph (ENE)    
Max Wind Speed 17 mph    
Max Gust Speed 26 mph    
Visibility 10 miles    
Events      
Averages and records for this station are not official NWS values.
T = Trace of Precipitation, MM = Missing Value Source: NWS Daily Summary

Daily Weather History Graph

Daily Weather History Graph

Search for Another Location

Airport or City:

Trip Planner

Search our weather history database for the weather conditions in past years. The results will help you decide how hot, cold, wet, or windy it might be!

Date:

Astronomy

Apr. 01, 2014 Rise Set
Actual Time 7:24 AM CDT 8:00 PM CDT
Civil Twilight 6:58 AM CDT 8:26 PM CDT
Nautical Twilight 6:27 AM CDT 8:56 PM CDT
Astronomical Twilight 5:56 AM CDT 9:28 PM CDT
Moon 8:31 AM CDT (4/1) 10:20 PM CDT (4/1)
Length of Visible Light 13h 28m
Length of Day
12h 36m
Waxing Crescent, 5% of the Moon is Illuminated
Apr 1
Waxing Crescent
Apr 7
First Quarter
Apr 15
Full
Apr 22
Last Quarter
Apr 29
New

Hourly Weather History & Observations

Time (CDT) Temp. Windchill Dew Point Humidity Pressure Visibility Wind Dir Wind Speed Gust Speed Precip Events Conditions
12:15 AM 50.0 °F - 23.0 °F 35% 30.05 in 10.0 mi NNE 9.2 mph - N/A   Clear
12:35 AM 50.0 °F - 23.0 °F 35% 30.06 in 10.0 mi NNE 13.8 mph 19.6 mph N/A   Clear
12:55 AM 50.0 °F - 23.0 °F 35% 30.07 in 10.0 mi NNE 12.7 mph - N/A   Clear
1:15 AM 46.4 °F 40.7 °F 23.0 °F 40% 30.07 in 10.0 mi NE 12.7 mph - N/A   Clear
1:35 AM 46.4 °F 40.4 °F 23.0 °F 40% 30.07 in 10.0 mi NNE 13.8 mph - N/A   Clear
1:55 AM 44.6 °F 38.8 °F 24.8 °F 46% 30.07 in 10.0 mi NE 11.5 mph - N/A   Clear
2:15 AM 44.6 °F 38.1 °F 24.8 °F 46% 30.07 in 10.0 mi NE 13.8 mph - N/A   Clear
2:35 AM 44.6 °F 38.1 °F 24.8 °F 46% 30.07 in 10.0 mi NNE 13.8 mph - N/A   Clear
2:55 AM 42.8 °F 36.2 °F 24.8 °F 49% 30.07 in 10.0 mi NNE 12.7 mph - N/A   Clear
3:15 AM 42.8 °F 36.6 °F 24.8 °F 49% 30.07 in 10.0 mi NNE 11.5 mph - N/A   Clear
3:35 AM 41.0 °F 35.2 °F 26.6 °F 57% 30.07 in 10.0 mi NNE 9.2 mph - N/A   Clear
3:55 AM 41.0 °F 35.2 °F 24.8 °F 53% 30.07 in 10.0 mi NE 9.2 mph - N/A   Clear
4:15 AM 37.4 °F 32.1 °F 24.8 °F 60% 30.07 in 10.0 mi NNE 6.9 mph - N/A   Clear
4:35 AM 35.6 °F 29.9 °F 24.8 °F 65% 30.07 in 10.0 mi NE 6.9 mph - N/A   Scattered Clouds
4:55 AM 35.6 °F 29.2 °F 24.8 °F 65% 30.06 in 10.0 mi NE 8.1 mph - N/A   Scattered Clouds
5:15 AM 35.6 °F 29.2 °F 24.8 °F 65% 30.07 in 10.0 mi NE 8.1 mph - N/A   Scattered Clouds
5:35 AM 35.6 °F 29.2 °F 26.6 °F 70% 30.07 in 10.0 mi NE 8.1 mph - N/A   Clear
5:55 AM 35.6 °F 29.2 °F 24.8 °F 65% 30.07 in 10.0 mi NE 8.1 mph - N/A   Clear
6:15 AM 35.6 °F 29.2 °F 24.8 °F 65% 30.07 in 10.0 mi NE 8.1 mph - N/A   Clear
6:35 AM 33.8 °F 27.0 °F 24.8 °F 70% 30.07 in 10.0 mi NE 8.1 mph - N/A   Clear
6:55 AM 33.8 °F 26.4 °F 26.6 °F 75% 30.07 in 10.0 mi NE 9.2 mph - N/A   Scattered Clouds
7:15 AM 33.8 °F 27.7 °F 26.6 °F 75% 30.08 in 10.0 mi NE 6.9 mph - N/A   Scattered Clouds
7:35 AM 33.8 °F 27.0 °F 26.6 °F 75% 30.08 in 10.0 mi NE 8.1 mph - N/A   Clear
7:55 AM 33.8 °F 27.7 °F 26.6 °F 75% 30.09 in 10.0 mi NE 6.9 mph - N/A   Scattered Clouds
8:15 AM 35.6 °F 29.2 °F 26.6 °F 70% 30.09 in 10.0 mi NE 8.1 mph - N/A   Mostly Cloudy
8:35 AM 37.4 °F 30.3 °F 26.6 °F 65% 30.09 in 10.0 mi NE 10.4 mph - N/A   Overcast
8:55 AM 37.4 °F 30.3 °F 26.6 °F 65% 30.08 in 10.0 mi NE 10.4 mph - N/A   Overcast
9:15 AM 39.2 °F 31.6 °F 24.8 °F 56% 30.08 in 10.0 mi NE 12.7 mph - N/A   Overcast
9:35 AM 41.0 °F 34.7 °F 24.8 °F 53% 30.08 in 10.0 mi NE 10.4 mph - N/A   Mostly Cloudy
9:55 AM 42.8 °F 36.2 °F 24.8 °F 49% 30.08 in 10.0 mi NE 12.7 mph - N/A   Mostly Cloudy
10:15 AM 42.8 °F 37.0 °F 24.8 °F 49% 30.10 in 10.0 mi NE 10.4 mph - N/A   Mostly Cloudy
10:35 AM 42.8 °F 37.0 °F 26.6 °F 53% 30.09 in 10.0 mi NE 10.4 mph 16.1 mph N/A   Overcast
10:55 AM 44.6 °F 40.7 °F 26.6 °F 49% 30.08 in 10.0 mi ENE 6.9 mph - N/A   Overcast
11:15 AM 44.6 °F 38.8 °F 26.6 °F 49% 30.07 in 10.0 mi ENE 11.5 mph - N/A   Overcast
11:35 AM 44.6 °F 38.8 °F 26.6 °F 49% 30.05 in 10.0 mi ENE 11.5 mph 16.1 mph N/A   Overcast
11:55 AM 46.4 °F 41.9 °F 26.6 °F 46% 30.05 in 10.0 mi East 9.2 mph - N/A   Overcast
12:15 PM 46.4 °F 41.1 °F 26.6 °F 46% 30.04 in 10.0 mi East 11.5 mph 17.3 mph N/A   Overcast
12:35 PM 48.2 °F - 26.6 °F 43% 30.03 in 10.0 mi East 12.7 mph 18.4 mph N/A   Overcast
12:55 PM 50.0 °F - 26.6 °F 40% 30.02 in 10.0 mi East 9.2 mph 16.1 mph N/A   Overcast
1:15 PM 50.0 °F - 26.6 °F 40% 30.01 in 10.0 mi ENE 9.2 mph 18.4 mph N/A   Overcast
1:35 PM 51.8 °F - 28.4 °F 41% 30.00 in 10.0 mi East 11.5 mph 17.3 mph N/A   Overcast
1:55 PM 53.6 °F - 28.4 °F 38% 29.99 in 10.0 mi East 9.2 mph - N/A   Overcast
2:15 PM 51.8 °F - 28.4 °F 41% 29.97 in 10.0 mi East 9.2 mph - N/A   Overcast
2:35 PM 53.6 °F - 30.2 °F 41% 29.95 in 10.0 mi East 11.5 mph - N/A   Scattered Clouds
2:55 PM 55.4 °F - 30.2 °F 38% 29.94 in 10.0 mi East 10.4 mph 17.3 mph N/A   Clear
3:15 PM 57.2 °F - 30.2 °F 36% 29.93 in 10.0 mi ESE 10.4 mph 18.4 mph N/A   Clear
3:35 PM 59.0 °F - 30.2 °F 34% 29.92 in 10.0 mi SE 8.1 mph - N/A   Clear
3:55 PM 59.0 °F - 32.0 °F 36% 29.90 in 10.0 mi SSE 8.1 mph 16.1 mph N/A   Clear
4:15 PM 59.0 °F - 32.0 °F 36% 29.89 in 10.0 mi ESE 8.1 mph 18.4 mph N/A   Clear
4:35 PM 60.8 °F - 32.0 °F 34% 29.88 in 10.0 mi ESE 8.1 mph - N/A   Clear
4:55 PM 60.8 °F - 32.0 °F 34% 29.88 in 10.0 mi ESE 8.1 mph - N/A   Clear
5:15 PM 60.8 °F - 32.0 °F 34% 29.87 in 10.0 mi ESE 12.7 mph 17.3 mph N/A   Clear
5:35 PM 60.8 °F - 32.0 °F 34% 29.86 in 10.0 mi ESE 12.7 mph 20.7 mph N/A   Clear
5:55 PM 60.8 °F - 32.0 °F 34% 29.86 in 10.0 mi ESE 12.7 mph - N/A   Clear
6:15 PM 60.8 °F - 32.0 °F 34% 29.86 in 10.0 mi ESE 12.7 mph - N/A   Clear
6:35 PM 60.8 °F - 33.8 °F 36% 29.85 in 10.0 mi ESE 10.4 mph - N/A   Clear
6:55 PM 62.6 °F - 33.8 °F 34% 29.85 in 10.0 mi SE 12.7 mph - N/A   Clear
7:15 PM 60.8 °F - 35.6 °F 39% 29.85 in 10.0 mi SE 13.8 mph 17.3 mph N/A   Clear
7:35 PM 60.8 °F - 33.8 °F 36% 29.85 in 10.0 mi SE 10.4 mph - N/A   Clear
7:55 PM 59.0 °F - 33.8 °F 39% 29.85 in 10.0 mi ESE 9.2 mph - N/A   Clear
8:15 PM 57.2 °F - 35.6 °F 44% 29.84 in 10.0 mi ESE 8.1 mph - N/A   Clear
8:35 PM 55.4 °F - 35.6 °F 47% 29.84 in 10.0 mi East 8.1 mph - N/A   Clear
8:55 PM 53.6 °F - 35.6 °F 51% 29.84 in 10.0 mi East 9.2 mph - N/A   Clear
9:15 PM 53.6 °F - 35.6 °F 51% 29.83 in 10.0 mi East 10.4 mph - N/A   Clear
9:35 PM 51.8 °F - 35.6 °F 54% 29.83 in 10.0 mi East 10.4 mph - N/A   Clear
9:55 PM 51.8 °F - 35.6 °F 54% 29.83 in 10.0 mi East 10.4 mph - N/A   Clear
10:15 PM 51.8 °F - 35.6 °F 54% 29.83 in 10.0 mi East 10.4 mph - N/A   Clear
10:35 PM 51.8 °F - 35.6 °F 54% 29.83 in 10.0 mi East 11.5 mph - N/A   Clear
10:55 PM 51.8 °F - 37.4 °F 58% 29.83 in 10.0 mi East 11.5 mph - N/A   Clear
11:15 PM 50.0 °F - 37.4 °F 62% 29.83 in 10.0 mi East 10.4 mph - N/A   Clear
11:35 PM 50.0 °F - 37.4 °F 62% 29.83 in 10.0 mi East 10.4 mph - N/A   Clear
11:55 PM 50.0 °F - 37.4 °F 62% 29.81 in 10.0 mi East 17.3 mph 26.5 mph N/A   Clear